Logrono, Spain

7:50 PM CEST on May 27, 2018 (GMT +0200)
Logrono

Weather History for LELO - May, 2013

Change the Weather History Date:

Sunday, May 26, 2013

  Actual Average (WUND) Record (WUND)
Temperature  
Mean Temperature 50 °F -  
Max Temperature 65 °F - - (-1)
Min Temperature 34 °F - - (-1)
Degree Days  
Heating Degree Days 16    
Moisture  
Dew Point 42 °F    
Average Humidity 74    
Maximum Humidity 100    
Minimum Humidity 27    
Precipitation  
Precipitation 0.02 in 0.06 in - ()
Sea Level Pressure  
Sea Level Pressure 30.05 in    
Wind  
Wind Speed 2 mph ()    
Max Wind Speed 13 mph    
Max Gust Speed -    
Visibility 7.9 miles    
Events Rain , Thunderstorm    
Averages and records for this station are not official NWS values.
T = Trace of Precipitation, MM = Missing Value Source: Averaged Metar Reports

Daily Weather History Graph

Daily Weather History Graph

Search for Another Location

Airport or City:

Astronomy

May. 26, 2013 Rise Set
Actual Time 6:38 AM CEST 9:34 PM CEST
Civil Twilight 6:04 AM CEST 10:08 PM CEST
Nautical Twilight 5:22 AM CEST 10:51 PM CEST
Astronomical Twilight 4:32 AM CEST 11:41 PM CEST
Moon 11:08 PM CEST (5/26) 7:51 AM CEST (5/26)
Length of Visible Light 16h 03m
Length of Day
14h 56m
Full, 98% of the Moon is Illuminated
May 26
Full
May 31
Last Quarter
Jun 8
New
Jun 16
First Quarter
Jun 23
Full

Hourly Weather History & Observations

Time (CEST) Temp. Dew Point Humidity Pressure Visibility Wind Dir Wind Speed Gust Speed Precip Events Conditions
12:00 AM 44.6 °F 41.0 °F 87% 30.18 in - Variable 1.2 mph - N/A   Clear
1:00 AM 42.8 °F 39.2 °F 87% 30.18 in - Variable 1.2 mph - N/A   Clear
2:00 AM 41 °F 36 °F 78% 30.22 in 19 mi Calm Calm - -  
2:00 AM 41.0 °F 39.2 °F 93% 30.18 in - Calm Calm - N/A   Clear
3:00 AM 39.2 °F 37.4 °F 93% 30.15 in - Calm Calm - N/A   Clear
4:00 AM 37.4 °F 37.4 °F 100% 30.12 in - Variable 1.2 mph - N/A   Clear
5:00 AM 37.4 °F 37.4 °F 100% 30.12 in - Calm Calm - N/A   Clear
6:00 AM 35.6 °F 35.6 °F 100% 30.09 in - Calm Calm - N/A   Clear
7:00 AM 35.6 °F 35.6 °F 100% 30.09 in - Variable 1.2 mph - N/A   Clear
8:00 AM 40 °F 36 °F 78% 30.15 in 22 mi Calm Calm - -  
8:00 AM 39.2 °F 39.2 °F 100% 30.09 in - Calm Calm - N/A   Clear
9:00 AM 46.4 °F 41.0 °F 81% 30.09 in - Calm Calm - N/A   Clear
10:00 AM 50.0 °F 41.0 °F 71% 30.09 in - Variable 2.3 mph - N/A   Clear
11:00 AM 55.4 °F 39.2 °F 54% 30.06 in - East 5.8 mph - N/A   Clear
12:00 PM 59.0 °F 41.0 °F 51% 30.06 in - East 8.1 mph - N/A   Clear
1:00 PM 60.8 °F 41.0 °F 48% 30.04 in - East 9.2 mph - N/A   Clear
2:00 PM 62 °F 37 °F 27% 30.01 in 22 mi East 12.7 mph - -   Clear
2:00 PM 62.6 °F 41.0 °F 45% 30.01 in - East 9.2 mph - N/A   Clear
3:00 PM 66.2 °F 37.4 °F 35% 29.98 in - East 11.5 mph - N/A   Clear
4:00 PM 64.4 °F 41.0 °F 42% 29.95 in 6.2 mi East 8.1 mph - N/A   Scattered Clouds
5:00 PM 64.4 °F 44.6 °F 49% 29.95 in 6.2 mi East 3.5 mph - N/A   Scattered Clouds
6:00 PM 57.2 °F 48.2 °F 72% 29.95 in 6.2 mi ENE 8.1 mph - N/A   Scattered Clouds
7:00 PM 59.0 °F 51.8 °F 77% 29.95 in 6.2 mi Calm Calm - N/A Rain Light Rain
8:00 PM 58 °F 50 °F 68% 29.94 in 9 mi ENE 3.5 mph - - Rain , Thunderstorm Thunderstorms and Rain
8:00 PM 57.2 °F 53.6 °F 88% 29.95 in 6.2 mi NE 3.5 mph - N/A Rain , Thunderstorm Light Thunderstorms and Rain
9:00 PM 59.0 °F 51.8 °F 77% 29.95 in - ENE 4.6 mph - N/A   Clear
10:00 PM 55.4 °F 50.0 °F 82% 29.95 in - NE 4.6 mph - N/A   Clear
11:00 PM 55.4 °F 51.8 °F 88% 29.98 in 4.3 mi Variable 2.3 mph - N/A Rain Rain